This is the latest recevied weather packets stored in our database for station/object W4NRG-1. If no packets are shown the sender has not sent any weather packets the latest 10 day(s).
| Time | Temp. | Humidity | Pressure | Rain* | Wind** | Luminosity | Snow |
|---|---|---|---|---|---|---|---|
| 1778183803 | 12.78° C | 74% | 1010.9 hPa | 0 mm | - | - | - |
| 1778183500 | 12.78° C | 76% | 1011.3 hPa | 0 mm | - | - | - |
| 1778183197 | 13.33° C | 73% | 1011.1 hPa | 1.27 mm | - | - | - |
| 1778182892 | 12.78° C | 76% | 1011.2 hPa | 0 mm | - | - | - |
| 1778182590 | 12.78° C | 73% | 1011.3 hPa | 0 mm | - | - | - |
| 1778182287 | 12.78° C | 72% | 1011.2 hPa | 0 mm | - | - | - |
| 1778181983 | 13.33° C | 74% | 1011.4 hPa | 0 mm | - | - | - |
| 1778181680 | 13.33° C | 72% | 1011.8 hPa | 0 mm | - | - | - |
| 1778181376 | 13.33° C | 69% | 1011.7 hPa | 0 mm | - | - | - |
| 1778181073 | 13.33° C | 64% | 1011.7 hPa | 0 mm | - | - | - |
| 1778180770 | 13.89° C | 63% | 1011.2 hPa | 1.78 mm | - | - | - |
| 1778180469 | 13.89° C | 64% | 1011.3 hPa | 1.78 mm | - | - | - |
| 1778180167 | 13.89° C | 62% | 1011.4 hPa | 0 mm | - | - | - |
| 1778179863 | 13.89° C | 59% | 1011.6 hPa | 0 mm | - | - | - |
| 1778179561 | 14.44° C | 57% | 1011.5 hPa | 0 mm | - | - | - |
| 1778179259 | 14.44° C | 59% | 1011.5 hPa | 0 mm | - | - | - |
| 1778178955 | 14.44° C | 59% | 1011.7 hPa | 0 mm | - | - | - |
| 1778178652 | 14.44° C | 63% | 1011.8 hPa | 0 mm | - | - | - |
| 1778178348 | 13.89° C | 62% | 1011.8 hPa | 0 mm | - | - | - |
| 1778178044 | 13.89° C | 63% | 1012 hPa | 0 mm | - | - | - |
| 1778177741 | 13.89° C | 62% | 1011.7 hPa | 0 mm | - | - | - |
| 1778177437 | 13.89° C | 61% | 1012 hPa | 0 mm | - | - | - |
| 1778177134 | 13.89° C | 64% | 1012 hPa | 0 mm | - | - | - |
| 1778176831 | 13.89° C | 58% | 1012.2 hPa | 0 mm | - | - | - |
| 1778176527 | 13.89° C | 62% | 1011.9 hPa | 0 mm | - | - | - |
* Rain latest hour (hover to see other rain measurements)
** Current wind speed in m/s (hover to see current wind gust speed)